| Date | Time | Temp. (oF) | Dew Point (oF) | Rel. Hum. (%) | Press. (in.) | Wind Dir. | Wind Speed (mph) | Hourly Rainfall (in.) |
|
|---|---|---|---|---|---|---|---|---|---|
| 1 | 10/25 | 00:00 | 54 | 50 | 87 | 30.00 | NNW | 0 | 0.00 |
| 2 | 10/24 | 23:00 | 58 | 51 | 80 | 30.02 | NNW | 0 | 0.00 |
| 3 | 10/24 | 22:00 | 59 | 51 | 75 | 30.02 | NNW | 0 | 0.00 |
| 4 | 10/24 | 21:00 | 61 | 51 | 72 | 30.01 | NNW | 0 | 0.00 |
| 5 | 10/24 | 20:00 | 62 | 50 | 66 | 30.00 | NNW | 0 | 0.00 |
| 6 | 10/24 | 19:00 | 65 | 52 | 63 | 30.00 | NNW | 0 | 0.00 |
| 7 | 10/24 | 18:00 | 69 | 51 | 54 | 29.98 | NNW | 0 | 0.00 |
| 8 | 10/24 | 17:00 | 75 | 49 | 41 | 29.99 | NNW | 0 | 0.00 |
| 9 | 10/24 | 16:00 | 75 | 48 | 40 | 30.00 | NNW | 0 | 0.00 |
| 10 | 10/24 | 15:00 | 76 | 49 | 39 | 30.01 | NNW | 0 | 0.00 |
| 11 | 10/24 | 14:00 | 73 | 50 | 45 | 30.04 | NNW | 0 | 0.00 |
| 12 | 10/24 | 13:00 | 73 | 51 | 47 | 30.06 | NNW | 0 | 0.00 |
| 13 | 10/24 | 12:00 | 68 | 50 | 53 | 30.09 | NNW | 0 | 0.00 |
| 14 | 10/24 | 11:00 | 64 | 50 | 62 | 30.12 | NNW | 0 | 0.00 |
| 15 | 10/24 | 10:00 | 60 | 52 | 77 | 30.14 | NNW | 0 | 0.00 |
| 16 | 10/24 | 09:00 | 51 | 44 | 78 | 30.15 | NNW | 0 | 0.00 |
| 17 | 10/24 | 08:00 | 46 | 41 | 84 | 30.14 | NNW | 0 | 0.00 |
| 18 | 10/24 | 07:00 | 46 | 42 | 87 | 30.13 | NNW | 0 | 0.00 |
| 19 | 10/24 | 06:00 | 48 | 44 | 88 | 30.13 | NNW | 0 | 0.00 |
| 20 | 10/24 | 05:00 | 50 | 46 | 88 | 30.13 | NNW | 0 | 0.00 |
| 21 | 10/24 | 04:00 | 51 | 47 | 87 | 30.13 | NNW | 0 | 0.00 |
| 22 | 10/24 | 03:00 | 51 | 45 | 82 | 30.15 | NNW | 0 | 0.00 |
| 23 | 10/24 | 02:00 | 53 | 45 | 77 | 30.16 | NNW | 0 | 0.00 |
| 24 | 10/24 | 01:00 | 54 | 44 | 69 | 30.16 | NNW | 0 | 0.00 |